Weather History for KHYR - February, 2012

Change the Weather History Date:

Wednesday, February 1, 2012

  Actual Average Record
Temperature  
Mean Temperature 30 °F -  
Max Temperature 33 °F 33 °F 36 °F (2005)
Min Temperature 28 °F 3 °F -21 °F (1970)
Degree Days  
Heating Degree Days 34    
Moisture  
Dew Point 27 °F    
Average Humidity 83    
Maximum Humidity 92    
Minimum Humidity 75    
Precipitation  
Precipitation 0.00 in - - ()
Sea Level Pressure  
Sea Level Pressure 30.08 in    
Wind  
Wind Speed 3 mph (SSW)    
Max Wind Speed 8 mph    
Max Gust Speed -    
Visibility 9 miles    
Events      
Averages and records for this station are not official NWS values.
T = Trace of Precipitation, MM = Missing Value Source: NWS Daily Summary

Daily Weather History Graph

Daily Weather History Graph

Search for Another Location

Airport or City:

Trip Planner

Search our weather history database for the weather conditions in past years. The results will help you decide how hot, cold, wet, or windy it might be!

Date:

Astronomy

Feb. 01, 2012 Rise Set
Actual Time 7:28 AM CST 5:10 PM CST
Civil Twilight 6:56 AM CST 5:42 PM CST
Nautical Twilight 6:20 AM CST 6:18 PM CST
Astronomical Twilight 5:45 AM CST 6:53 PM CST
Moon 11:33 AM CST (2/1) 2:19 AM CST (2/1)
Length of Visible Light 10h 45m
Length of Day
9h 41m
Waxing Gibbous, 65% of the Moon is Illuminated
Feb 1
Waxing Gibbous
Feb 7
Full
Feb 14
Last Quarter
Feb 21
New
Feb 29
First Quarter

Hourly Weather History & Observations

Time (CST) Temp. Windchill Dew Point Humidity Pressure Visibility Wind Dir Wind Speed Gust Speed Precip Events Conditions
12:53 AM 32.0 °F 28.7 °F 26.1 °F 79% 29.96 in 10.0 mi Variable 3.5 mph - N/A   Overcast
1:53 AM 30.9 °F - 26.1 °F 82% 29.97 in 10.0 mi Calm Calm - N/A   Overcast
2:53 AM 30.9 °F 27.5 °F 25.0 °F 79% 30.01 in 10.0 mi Variable 3.5 mph - N/A   Overcast
3:53 AM 30.0 °F 26.5 °F 25.0 °F 82% 30.02 in 10.0 mi West 3.5 mph - N/A   Overcast
4:53 AM 30.9 °F - 25.0 °F 79% 30.03 in 10.0 mi Calm Calm - N/A   Overcast
6:53 AM 30.9 °F 26.2 °F 26.1 °F 82% 30.06 in 10.0 mi Variable 4.6 mph - N/A   Overcast
7:13 AM 30.2 °F - 26.6 °F 86% 30.03 in 10.0 mi Calm Calm - N/A   Overcast
7:53 AM 30.0 °F 25.2 °F 26.1 °F 85% 30.08 in 10.0 mi Variable 4.6 mph - N/A   Overcast
8:53 AM 30.9 °F - 27.0 °F 85% 30.10 in 10.0 mi Calm Calm - N/A   Overcast
9:53 AM 30.9 °F 26.2 °F 27.0 °F 85% 30.10 in 10.0 mi SSW 4.6 mph - N/A   Overcast
10:53 AM 30.9 °F 24.3 °F 27.0 °F 85% 30.12 in 10.0 mi SSW 6.9 mph - N/A   Overcast
11:53 AM 32.0 °F - 27.0 °F 82% 30.12 in 10.0 mi Calm Calm - N/A   Overcast
12:53 PM 32.0 °F - 27.0 °F 82% 30.11 in 10.0 mi Calm Calm - N/A   Overcast
1:53 PM 33.1 °F 28.7 °F 27.0 °F 78% 30.11 in 10.0 mi WSW 4.6 mph - N/A   Overcast
2:34 PM 33.8 °F - 26.6 °F 75% 30.06 in 10.0 mi Calm Calm - N/A   Overcast
2:53 PM 33.1 °F - 27.0 °F 78% 30.11 in 10.0 mi Calm Calm - N/A   Overcast
3:53 PM 33.1 °F 26.1 °F 27.0 °F 78% 30.11 in 10.0 mi South 8.1 mph - N/A   Overcast
4:53 PM 32.0 °F - 27.0 °F 82% 30.12 in 10.0 mi Calm Calm - N/A   Overcast
5:28 PM 32.0 °F 28.7 °F 26.6 °F 80% 30.07 in 10.0 mi SSW 3.5 mph - N/A   Overcast
5:53 PM 30.9 °F - 27.0 °F 85% 30.12 in 10.0 mi Calm Calm - N/A   Overcast
6:38 PM 30.2 °F 25.4 °F 26.6 °F 86% 30.07 in 8.0 mi SSW 4.6 mph - N/A   Overcast
6:53 PM 30.0 °F 26.5 °F 27.0 °F 88% 30.12 in 8.0 mi SSW 3.5 mph - N/A   Overcast
7:53 PM 30.0 °F 25.2 °F 27.0 °F 88% 30.12 in 7.0 mi South 4.6 mph - N/A   Overcast
8:53 PM 28.9 °F 23.9 °F 27.0 °F 92% 30.13 in 6.0 mi SSW 4.6 mph - N/A   Overcast
9:53 PM 30.0 °F 26.5 °F 27.0 °F 88% 30.12 in 5.0 mi South 3.5 mph - N/A   Overcast
10:53 PM 30.0 °F 24.1 °F 27.0 °F 88% 30.12 in 5.0 mi South 5.8 mph - N/A   Overcast
11:53 PM 30.0 °F - 28.0 °F 92% 30.13 in 5.0 mi Calm Calm - N/A   Overcast